weather.gov     
National Weather Service

Regional Weather Roundup
NWS Homepage
This page is being discontinued on March 12, 2014.
The same data is available at this site. Please update your bookmarks.
Thank you, and we apologize for the inconvenience.
Please send an email to SR-SRH.Webmaster@noaa.gov with any concerns.


Current Version
Previous Version:    01  02  03  04  05  06  07  08  09  10  11  12  13  14  15  16  17  18  19  20  21  22  23  24  
[Printable]
733
ASUS44 KSJT 261310
RWRSJT
WEST CENTRAL TEXAS REGIONAL WEATHER ROUNDUP
NATIONAL WEATHER SERVICE SAN ANGELO TX
800 AM CDT SAT JUL 26 2014

NOTE: "FAIR" INDICATES FEW OR NO CLOUDS BELOW 12,000 FEET WITH NO
SIGNIFICANT WEATHER AND/OR OBSTRUCTIONS TO VISIBILITY.

TXZ049-054-064>066-071>073-076>078-098-099-113-114-127-128-139-140-
154-155-168>170-261400
...LOCATIONS ACROSS WEST CENTRAL TEXAS...

CITY           SKY/WX    TMP DP  RH WIND       PRES   REMARKS
SAN ANGELO     SUNNY     76  66  71 S12       30.02R
ABILENE        SUNNY     78  66  66 S10       30.02R
DYESS AFB      SUNNY     78  66  65 S8        30.01R
JUNCTION       SUNNY     75  68  78 CALM      30.04R
SWEETWATER     SUNNY     79  63  58 S12       30.07R
BROWNWOOD      SUNNY     75  68  78 SE6       30.04R
COLEMAN        SUNNY     75  66  75 S5        30.04R
SONORA         SUNNY     75  66  73 SE5       30.09R
OZONA          FAIR      73  64  73 SE6       30.07R
BRADY          SUNNY     75  66  73 S6        30.04R
$$

TEXAS PANHANDLE/OKLAHOMA PANHANDLE

CITY           SKY/WX    TMP DP  RH WIND       PRES   REMARKS
AMARILLO       SUNNY     75  57  53 SW16      30.05S
BORGER         SUNNY     79  55  43 SW15G21   30.01S
CANADIAN       SUNNY     75  59  57 CALM      29.96S
DALHART        MOSUNNY   73  50  44 S9        30.06S
DUMAS          SUNNY     75  53  45 SW14      30.04S
GUYMON         NOT AVBL
HEREFORD       MOSUNNY   72  59  62 S12       30.08S
PAMPA          SUNNY     76  55  47 W14G20    30.03S
PERRYTON       SUNNY     77  51  40 SW14      29.98R
$$

SOUTHERN PANHANDLE/SOUTH PLAINS/ROLLING PLAINS

CITY           SKY/WX    TMP DP  RH WIND       PRES   REMARKS
LUBBOCK        MOSUNNY   75  59  57 SW10      30.06R
SNYDER         SUNNY     75  63  66 S7        30.05R
CHILDRESS      SUNNY     73  63  70 S8        29.99R
SEMINOLE       SUNNY     71  61  69 CALM      30.08S
$$

PERMIAN BASIN

CITY           SKY/WX    TMP DP  RH WIND       PRES   REMARKS
MIDLAND        SUNNY     76  63  64 S6        30.04R
ODESSA         SUNNY     76  62  62 S9        30.05R
WINK           SUNNY     75  63  66 SE9       30.01R
$$

FAR WEST/SOUTHWEST MOUNTAINS/TRANS PECOS

CITY           SKY/WX    TMP DP  RH WIND       PRES   REMARKS
ALPINE         SUNNY     73  56  55 SW7       30.19S
DRYDEN           N/A     78  68  71 E5        30.01R
EL PASO        CLEAR     78  45  30 CALM      30.06R
FORT STOCKTON  SUNNY     73  61  65 S9        30.04R
GUADALUPE PASS   N/A     72  55  55 MISG        N/A
MARFA          CLEAR     63  55  77 N6        30.19R
PECOS          SUNNY     71  60  69 CALM      30.00R
$$

DALLAS/FORT WORTH METROPLEX

CITY           SKY/WX    TMP DP  RH WIND       PRES   REMARKS
DFW AIRPORT    MOSUNNY   81  71  71 S9        29.99R
FTW MEACHAM    SUNNY     81  71  71 S8        29.99R
DAL-EXECUTIVE  SUNNY     81  71  71 VRB5      30.00R
GRAND PRAIRIE  SUNNY     77  70  78 S7        30.02R
ADDISON        SUNNY     81  70  69 S7        30.01R
MESQUITE       NOT AVBL
LANCASTER      SUNNY     76  70  80 S3        30.02S
$$

NORTH CENTRAL TEXAS

CITY           SKY/WX    TMP DP  RH WIND       PRES   REMARKS
SHRMAN/DENISON SUNNY     81  70  69 S12       30.00S
GAINESVILLE    SUNNY     76  71  83 S7        30.01R
BRIDGEPORT     SUNNY     79  67  67 S5        30.00S
DENTON         SUNNY     79  71  76 S6        29.99R
WAXAHACHIE     SUNNY     77  71  80 S5        30.03R
GRANBURY       SUNNY     81  70  68 CALM      30.02R
$$

WESTERN NORTH TEXAS

CITY           SKY/WX    TMP DP  RH WIND       PRES   REMARKS
WICHITA FALLS  SUNNY     78  68  71 S12       29.96R
VERNON         SUNNY     79  65  62 S9        29.96S
BRECKENRIDGE   SUNNY     80  66  62 S10       30.00R
COMANCHE       SUNNY     77  68  73 S6        30.03R
$$

CENTRAL AND SOUTH CENTRAL TEXAS

CITY           SKY/WX    TMP DP  RH WIND       PRES   REMARKS
AUSTIN/BERGSTM MOSUNNY   76  75  97 S6        30.03R FOG
WACO           SUNNY     79  73  82 S12       30.02R
HILLSBORO      SUNNY     77  71  81 SE6       30.02R
TEMPLE         SUNNY     75  70  83 S9        30.03R
KILLEEN-GRAY   MOSUNNY   75  72  88 S8        30.03R
FORT HOOD      SUNNY     78  73  84 SE6       30.03R
GEORGETOWN     SUNNY     79  73  83 S12       30.04R
LAGO VISTA     FAIR      76  73  88 S8        30.06R
SAN MARCOS     SUNNY     75  72  88 MISG      30.05R
NEW BRAUNFELS  SUNNY     76  73  91 CALM      30.02R
RANDOLPH AFB   SUNNY     75  72  88 E2        30.04R
SAN ANTONIO    SUNNY     78  73  84 SE7       30.03R
STINSON        SUNNY     77  73  87 E5        30.01R
PLEASANTON     NOT AVBL
LA GRANGE      PTSUNNY   79  78  97 CALM      30.02R FOG
GIDDINGS       PTSUNNY   77  75  93 CALM      30.07S FOG
$$

EAST TEXAS

CITY           SKY/WX    TMP DP  RH WIND       PRES   REMARKS
PARIS          SUNNY     77  70  78 S6        30.02R
CLARKSVILLE    MOSUNNY   77  74  90 S3        30.01S
TYLER          SUNNY     79  73  82 SW8       30.04R
LONGVIEW       SUNNY     78  73  84 SW3       30.03R
PALESTINE      NOT AVBL
NACOGDOCHES    SUNNY     75  73  94 CALM      30.06R
$$

TEXAS HILL COUNTRY AND EDWARDS PLATEAU

CITY           SKY/WX    TMP DP  RH WIND       PRES   REMARKS
LLANO          SUNNY     75  70  83 SE5       30.07R
HORSESHOE BAY  FAIR      75  69  80 CALM      30.04R
KERRVILLE      PTSUNNY   74  72  92 SE7       30.06R
FREDERICKSBRG  SUNNY     73  68  84 CALM      30.06R
ROCKSPRINGS    SUNNY     73  68  83 SE10      30.09R
HONDO          SUNNY     74  72  93 E6        30.04R
UVALDE         SUNNY     75  73  91 E5        30.03R
DEL RIO        SUNNY     78  69  73 E14       29.97R
$$

SOUTHEAST TEXAS

CITY           SKY/WX    TMP DP  RH WIND       PRES   REMARKS
COLLEGE STN    CLOUDY    78  75  90 S7        30.05R
CALDWELL       MOSUNNY   75  75 100 S6        30.07R
CROCKETT       MOSUNNY   79  79 100 S3        30.07R FOG
BRENHAM        CLOUDY    76  74  95 CALM      30.04R FOG
HUNTSVILLE     SUNNY     79  75  87 S8        30.05R
CONROE         MOSUNNY   78  76  93 CALM      30.06R
HOUSTON BUSH   PTSUNNY   80  76  87 S3        30.04R
HOUSTON HOBBY  MOSUNNY   80  76  87 S3        30.04R
PERLAND        SUNNY     80  76  87 CALM      30.05R
WHARTON        SUNNY     77  76  96 CALM      30.05R FOG
$$

THE UPPER TEXAS COAST

CITY           SKY/WX    TMP DP  RH WIND       PRES   REMARKS
ORANGE         SUNNY     80  80 100 CALM      30.07R
PORT ARTHUR    MOSUNNY   81  77  88 W3        30.04R
GALVESTON      MOSUNNY   84  77  79 SW7       30.05R
ANGLETON       SUNNY     78  76  93 CALM      30.04R
BAY CITY       SUNNY     80  80 100 CALM      30.04R FOG
$$

TEXAS COASTAL BEND, RIO GRANDE PLAINS DEEP SOUTH TEXAS

CITY           SKY/WX    TMP DP  RH WIND       PRES   REMARKS
VICTORIA       SUNNY     81  78  91 SE5       30.03R
BEEVILLE       FAIR      78  77  97 S6        30.01R
ROCKPORT       MOSUNNY   82  77  84 S8        30.01R
PORT ARANSAS   SUNNY     81  78  91 S12       30.01R
PORT LAVACA    SUNNY     79  77  93 SE3       30.02R
CORPUS CHRISTI MOSUNNY   78  76  93 S8        30.00R
KINGSVILLE NAS SUNNY     78  77  96 SE6       30.00R
COTULLA          N/A     77  71  82 E6        29.99R
LAREDO         SUNNY     79  72  79 SE13      30.00R
BROWNSVILLE    SUNNY     81  78  91 SE7       30.00R
PORT ISABEL    SUNNY     83  76  79 SE8       30.00R HAZE
HEBBRONVILLE   SUNNY     77  73  87 SE8       30.02R
MCALLEN        MOSUNNY   81  77  88 SE8       29.99R
WESLACO        PTSUNNY   81  74  81 SE5       29.99R
FALFURRIAS     SUNNY     61  61 100 SE5       30.00R
EDINBURG       SUNNY     81  76  83 SE7       29.99R
$$




U.S. Dept. of Commerce
NOAA National Weather Service
1325 East West Highway
Silver Spring, MD 20910
E-mail: w-nws.webmaster@noaa.gov
Page last modified: May 16, 2007
NATIONAL WEATHER SERVICE: for Safety, for Work, for Fun - FOR LIFE